Regional Weather Roundup
Issued by NWS

Home | Current Version | Previous Version | Graphics & Text | Print | Product List | Glossary On
Versions: 1 2 3 4 5 6 7 8 9 10 11 12 13 14 15 16 17 18 19 20 21 22 23 24 25 26 27 28 29 30 31 32 33 34 35 36 37 38 39 40 41 42 43 44 45 46 47 48 49 50
000
ASUS43 KMKX 230320
RWRWI

WISCONSIN REGIONAL WEATHER ROUNDUP
NATIONAL WEATHER SERVICE MILWAUKEE/SULLIVAN WI
900 PM CST MON JAN 22 2018

NOTE: "FAIR" INDICATES FEW OR NO CLOUDS BELOW 12,000 FEET WITH NO
SIGNIFICANT WEATHER AND/OR OBSTRUCTIONS TO VISIBILITY.

WIZ001-002-006>008-014>016-023>028-230400-
NORTHWEST WISCONSIN

CITY           SKY/WX    TMP DP  RH WIND       PRES   REMARKS
SUPERIOR ARPT  CLOUDY    25  17  72 N12G20    29.88S WCI  14
ASHLAND        LGT SNOW  23  20  88 NE23G32   29.84S FOG     WCI   7
HAYWARD        FLURRIES  24  19  81 N14G30    29.75S WCI  12
SIREN          CLOUDY    27  21  79 NE17G25   29.79S WCI  14
CUMBERLAND     CLOUDY    25  21  86 N18G25    29.71S WCI  11
RICE LAKE        N/A     25  22  89 N17G28    29.72R WCI  12
CHETEK         LGT SNOW  26  24  89 N7        29.70R WCI  19
LADYSMITH        N/A     27  24  87 N13       29.69R WCI  16
EAU CLAIRE     LGT SNOW  27  25  92 N10       29.68R FOG     WCI  17
MENOMONIE      LGT SNOW  28  26  92 NW12      29.69R WCI  18
NEW RICHMOND   CLOUDY    26  23  89 N15G22    29.74R WCI  13
OSCEOLA        FLURRIES  28  23  84 N12G23    29.79R WCI  17
$$

WIZ003>005-009-010-017-018-230400-
NORTH CENTRAL WISCONSIN

CITY           SKY/WX    TMP DP  RH WIND       PRES   REMARKS
MANITOWISH WTR CLOUDY    22  22  99 N14G25    29.64F WCI   9
ARBOR VITAE    LGT SNOW  24  21  91 N16G29    29.61F VSB 1   WCI  10
WOODRUFF       LGT SNOW  24  21  91 N16G29    29.61F VSB 1   WCI  10
RHINELANDER    LGT SNOW  25  22  88 NE9G22    29.62R FOG     WCI  15
EAGLE RIVER    CLOUDY    23  21  93 NE14G22   29.62R WCI  10
LAND O LAKES   CLOUDY    23  20  90 N20       29.64F WCI   8
PHILLIPS       CLOUDY    23  21  93 N14G21    29.65R WCI  11
TOMAHAWK       MIX PCPN  25  22  89 NE6       29.65R WCI  18
MEDFORD        LGT SNOW  26  24  91 N15       29.60S WCI  13
MERRILL        FLURRIES  28  24  87 NE13      29.61F WCI  17
$$

WIZ029-030-035-036-043>047-230400-
CENTRAL WISCONSIN

CITY           SKY/WX    TMP DP  RH WIND       PRES   REMARKS
WAUSAU         CLOUDY    28  25  88 VRB7      29.57S WCI  21
MOSINEE        NOT AVBL
MARSHFIELD     CLOUDY    29  27  92 NE13      29.57R WCI  19
STEVENS POINT  CLOUDY    28  28  96 NE14      29.57S WCI  17
WAUPACA        CLOUDY    32  28  86 NE16G22   29.56S WCI  21
WAUTOMA        CLOUDY    30  28  92 N14G22    29.53S WCI  19
WISC RAPIDS    NOT AVBL
CAMP DOUGLAS   CLOUDY    32  30  93 N10       29.55F WCI  24
$$

WIZ011>013-019>022-031-037>040-048>050-230400-
NORTHEAST WISCONSIN

CITY           SKY/WX    TMP DP  RH WIND       PRES   REMARKS
ANTIGO         CLOUDY    26  24  92 NE20G25   29.57F WCI  13
SHAWANO        CLOUDY    32  28  85 NE15G22   29.57S WCI  21
OCONTO         CLOUDY    29  27  93 N7        29.57S WCI  22
STURGEON BAY   CLOUDY    31  30  96 N17       29.52F FOG     WCI  19
GREEN BAY      CLOUDY    31  28  89 NE18G30   29.54S WCI  19
MANITOWOC      MIX PCPN  33  32  96 N14G23    29.50F FOG     WCI  23
APPLETON       CLOUDY    30  30 100 N15G24    29.52F WCI  19
CLINTONVILLE   CLOUDY    30  27  86 NE12G17   29.57R WCI  21
OSHKOSH        CLOUDY    31  29  92 NE18G29   29.50F WCI  19
$$

WIZ032>034-041-042-053>061-230400-
SOUTHWEST WISCONSIN

CITY           SKY/WX    TMP DP  RH WIND       PRES   REMARKS
LA CROSSE      MIX PCPN  34  33  96 N9        29.59R FOG     WCI  27
SPARTA         CLOUDY    32  30  93 N8G17     29.59R WCI  25
VIROQUA        CLOUDY    32  32 100 N17G23    29.53S WCI  20
BOSCOBEL       CLOUDY    35 N/A N/A NE6       29.55R WCI  30
PRAIRIE DU CHI CLOUDY    35  32  89 N6        29.54R WCI  30
PLATTEVILLE    CLOUDY    35  35 100 NE9       29.50R WCI  28
$$

WIZ056-057-062-063-064-067-068-230400-
SOUTH CENTRAL WISCONSIN

CITY           SKY/WX    TMP DP  RH WIND       PRES   REMARKS
REEDSBURG      CLOUDY    32  32 100 N8        29.53R WCI  24
BARABOO/DELLS  CLOUDY    31  30  96 N6        29.53R WCI  25
LONE ROCK      CLOUDY    34  32  92 NE6       29.55R WCI  29
MINERAL POINT  CLOUDY    34  34 100 NE10      29.50F FOG     WCI  26
MADISON        FLURRIES  33  31  92 NE5       29.52R WCI  29
MIDDLETON      CLOUDY    34  34 100 NW3       29.53R
WATERTOWN      MIX PCPN  33  33 100 NW3       29.48R
MONROE         LGT RAIN  32  32 100 NW5       29.50S WCI  27
JANESVILLE     LGT RAIN  37  37 100 W8        29.50R WCI  31
$$

WIZ051-052-058>065-066-070>072-230400-
SOUTHEAST WISCONSIN

CITY           SKY/WX    TMP DP  RH WIND       PRES   REMARKS
MILWAUKEE      LGT RAIN  37  36  96 N16G24    29.43F WCI  28
WAUKESHA       CLOUDY    34  34 100 NE6       29.47S WCI  29
MILWAUKEE/TIMM LGT RAIN  36  34  93 NW3       29.49R FOG
RACINE         CLOUDY    37  37 100 VRB3      29.46R
BURLINGTON     MIX PCPN  37  36  96 W7        29.45F WCI  32
KENOSHA        CLOUDY    41  39  93 S8        29.45R
FOND DU LAC    CLOUDY    32  29  88 N17G25    29.48F WCI  21
SHEBOYGAN      CLOUDY    34  34 100 N13G18    29.49S FOG     WCI  25
WEST BEND      RAIN      32  32 100 NE5G17    29.47F WCI  27
JUNEAU         MIX PCPN  31  31  99 N13G18    29.47F WCI  21
$$

LSZ147-162-230400-
LAKE SUPERIOR

STATION/POSITION TIME  TEMP    WIND        PRES    WAVE
                       AIR SEA DIR/SP/G            HT/PER
                 (UTC) (F)     (DEG/KT/KT) (MB)    (FT/S)
DEVILS ISLAND    0300   23      30/ 25/ 28 1012.5F
SAXON HARBOR     0245   26      30/ 28     1009.5F
$$

LMZ867-665-643>646-230400-
LAKE MICHIGAN

STATION/POSITION TIME  TEMP    WIND        PRES    WAVE
                       AIR SEA DIR/SP/G            HT/PER
                 (UTC) (F)     (DEG/KT/KT) (MB)    (FT/S)
NORTHPORT PIER   0240   30      30/  7/ 15 1001.7F
KEWAUNEE LAKESHO 0254   33      10/ 12/ 21  998.8
SHEBOYGAN LAKESH 0300   34     350/ 21/ 24  999.0R
PORT WASHINGTON  0230   36     360/  6/ 12  999.0S
MILWAUKEE LAKESH 0300   36     360/  5/  7   N/A
KENOSHA   LAKESH 0300   42     220/ 13/ 18  998.0
$$

TC  - TEMPERATURE IN CELSIUS
VSB - VISIBILITY IN STATUTE MILES
WCI - WIND CHILL INDEX
HX  - HEAT INDEX





USA.gov is the U.S. government's official web portal to all federal, state and local government web resources and services.